Location: Sevilla
(37.3933°N, 5.9839°W)
Time: 12:21:18
(UTC+02:00)

S-56A Canister/Altair - Pass Details

Date: 24 June 2024
Orbit: 638 x 2488 km, 38.9° (Epoch: 14 July)

Event Time Altitude Azimuth Distance (km) Brightness Sun altitude
Rises 04:55:36 0° 289° (WNW) 5,482 11.7 -19.8°
Reaches altitude 10° 04:59:04 10° 284° (WNW) 4,675 11.3 -19.4°
Maximum altitude 05:11:50 48° 216° (SW) 3,011 10.0 -17.8°
Drops below altitude 10° 05:25:42 10° 149° (SSE) 5,025 11.5 -16.0°
Sets 05:29:37 0° 143° (SE) 5,908 11.9 -15.5°
